047  
ASUS43 KFGF 220410  
RWRFGF  
PRAIRIE TO PINES WEATHER ROUNDUP  
NATIONAL WEATHER SERVICE EASTERN NORTH DAKOTA/GRAND FORKS ND  
1100 PM CDT SAT OCT 21 2017  
 
**SATELLITE DATA USED TO AUGMENT SKY COVER AT AUTOMATED STATIONS**  
***** WEATHER ACROSS EASTERN NORTH DAKOTA *****  
 
CITY SKY/WX TMP DP RH WIND PRES REMARKS
 
GRAND FORKS CLOUDY 53 40 61 W14 29.65R  
GRAND FRKS AFB NOT AVBL  
DEVILS LAKE CLOUDY 46 37 71 W18G26 29.67R  
FARGO CLOUDY 52 41 66 SW12 29.72R  
WAHPETON ARPT NOT AVBL  

 
 
***** WEATHER ACROSS CENTRAL AND WESTERN NORTH DAKOTA *****  
 
CITY SKY/WX TMP DP RH WIND PRES REMARKS
 
BISMARCK FAIR 42 34 73 W8 29.82S  
MINOT FAIR 47 33 58 W15 29.72R  
JAMESTOWN MOCLDY 48 37 65 W15 29.75R  
MINOT AFB NOT AVBL  
GARRISON N/A 37 33 85 W9 29.77R  
WILLISTON FAIR 34 26 72 NW8 29.80R  
DICKINSON FAIR 39 25 57 W10 29.83R  
HETTINGER FAIR 33 21 61 CALM 29.90R  

 
 
***** OTHER AIRPORT OBSERVATIONS IN OUR AREA *****  
 
CITY SKY/WX TMP DP RH WIND PRES REMARKS
 
WALHALLA FAIR N/A N/A N/A W14G23 29.59F  
GRAFTON AIRPOR NOT AVBL  
VALLEY CITY AR NOT AVBL  
CANDO CLOUDY 45 37 76 W15G23 29.67R  
CAVALIER APRT CLOUDY 50 43 76 W16 29.59S  
GWINNER N/A 48 39 71 W10G20 29.79R  
SHEYENNE NWR N/A 50 38 63 W14 29.95S  
ROLLA FAIR 43 36 75 W16G22 29.62R  
***** THE ABOVE OBSERVATIONS ARE NON NWS ARE NOT QUALITY  
CONTROLLED AND MAY MIS-REPORT RAIN FOR SNOW...  

 
 
***** WEATHER ACROSS NORTHERN MINNESOTA *****  
 
CITY SKY/WX TMP DP RH WIND PRES REMARKS
 
FLAG ISLAND FAIR 52 43 71 SW10 29.53S  
WARROAD CLOUDY 52 45 76 SW10 29.58F  
ROSEAU CLOUDY 52 45 76 W10G22 29.58S  
HALLOCK CLOUDY 52 43 71 W10G17 29.59S  
THF RVR FALLS CLOUDY 50 42 74 SW14 29.65R  
BAUDETTE FAIR 49 43 80 SW8 29.59R  
WASKISH FAIR 50 46 87 SW15 29.63R  
CROOKSTON CLOUDY 52 39 62 W13 29.66S  
STEPHEN NDAWN N/A 52 39 62 W16 N/A  
GREENBUSH NDAW N/A 50 43 76 SW12 N/A  

 
***** WEATHER ACROSS CENTRAL AND WEST MINNESOTA *****  
 
CITY SKY/WX TMP DP RH WIND PRES REMARKS
 
FOSSTON CLOUDY 48 43 81 SW14 29.69R  
BEMIDJI CLOUDY 48 43 81 W12 29.68R  
PARK RAPIDS CLOUDY 49 43 80 W12 29.72R  
ELBOW LAKE MOCLDY 47 41 79 SW8 29.78S  
WADENA CLOUDY 48 43 81 W7 29.74S  
DETROIT LAKES MOCLDY 50 43 76 W8 29.74R  
MOORHEAD CLOUDY 52 39 62 SW9 29.74R  
FERGUS FALLS CLOUDY 48 41 76 W9 29.77R  
MORRIS MN FAIR 48 41 76 W10 29.79S  
STAPLES MOCLDY 46 43 87 W7 29.75R  

 
***** WEATHER ELSEWHERE ACROSS MINNESOTA *****  
 
CITY SKY/WX TMP DP RH WIND PRES REMARKS
 
DULUTH DRIZZLE 57 57 100 W17 29.68R  
INTRNTL FALLS CLOUDY 53 50 89 SW10 29.60R  
ELY CLOUDY 63 57 82 S10G18 29.63F  
CLOQUET CLOUDY 54 48 82 W9G17 29.70R  
WHEATON FAIR 50 37 62 W10 29.81S  
BRAINERD FAIR N/A N/A N/A W14 29.76R  
HIBBING CLOUDY 52 50 93 W7 29.67R  
ALEXANDRIA FAIR 48 41 76 W13 29.79R  
SAINT CLOUD FAIR 49 44 83 W13 29.79R  
MINNEAPOLIS FAIR 54 49 83 W13 29.82R  

 
 
***** WEATHER ACROSS SOUTH DAKOTA *****  
 
CITY SKY/WX TMP DP RH WIND PRES REMARKS
 
SIOUX FALLS FAIR 47 39 74 SW5 29.92R  
BROOKINGS FAIR 43 37 79 SW6 29.89R  
WATERTOWN FAIR 45 40 82 W12 29.84R  
HURON FAIR 44 37 76 SW6 29.90R  
SISSETON N/A 51 41 68 W14 29.79R  
ABERDEEN CLOUDY 45 39 79 SW8 29.85R  
MITCHELL FAIR 45 36 70 W7 29.91F  
PIERRE FAIR 46 32 58 W12 29.92R  
MOBRIDGE FAIR 48 32 53 W7 29.86R  
RAPID CITY FAIR 34 17 50 W6 29.98R  

 
 
***** SOME WEATHER IN NEARBY STATES *****  
 
CITY SKY/WX TMP DP RH WIND PRES REMARKS
 
GLASGOW MT FAIR 39 23 52 W5 29.81F  
GREAT FALLS MT FAIR 45 24 43 SW21 29.83R  
CHEYENNE WY FAIR 40 16 37 W25G36 30.09F  
SCOTTSBLUFF NE FAIR 43 17 35 W9 30.07R  
OMAHA NE CLOUDY 52 40 63 N3 29.99R  
DES MOINES IA RAIN 54 51 90 NW8 29.95R  
DAVENPORT IA FAIR 71 59 65 S16G32 29.91R  
CHICAGO IL FAIR 69 55 60 S18 30.00R  
EAU CLAIRE WI LGT RAIN 61 59 93 S9 29.78R  
LA CROSSE WI RAIN 63 61 93 S8 29.82R  

 
 
***** SOME NATIONAL WEATHER *****  
 
CITY SKY/WX TMP DP RH WIND PRES REMARKS
 
LA GUARDIA NY MOCLDY 66 46 48 SW6 30.35S  
RALEIGH NC MOCLDY 60 54 80 SE6 30.34F  
ATLANTA GA MOCLDY 62 55 77 E6 30.28S  
NEW ORLEANS LA FAIR 78 75 90 SE20G25 30.06F  
OKLAHOMA CITY TSTM 57 55 93 N22G30 29.89F  
ALBUQUERQUE NM FAIR 53 2 12 N18 30.22F  
SALT LAKE CITY FAIR 47 25 42 SE6 30.28R  
LOS ANGELES CA FAIR 68 53 58 CALM 30.06R  
BOISE ID CLOUDY 45 39 79 SE17 30.19R  
SEATTLE WA LGT RAIN 58 56 93 S22G30 29.62S FOG  

 
 
*** WEATHER ACROSS MANITOBA...SASKATCHEWAN AND ONTARIO ***  
***ONTARIO***  
 
CITY SKY/WX TMP DP RH WIND PRES REMARKS
 
GERALDTON CLOUDY 55 54 94 S9 29.77F  
THUNDER BAY CLOUDY 59 55 88 E6 29.72F  
SIOUX LOOKOUT LGT RAIN 61 57 88 S14G21 29.54F  
TORONTO MOCLDY 57 54 88 N2 30.22F  
BIG TROUT LK CLOUDY 50 48 93 S9 29.49F  
PICKLE LAKE NOT AVBL  
DRYDEN LGT RAIN 61 59 94 S14 29.51F  
KENORA CLOUDY 52 48 87 SW9 29.51S  

 
*** MANITOBA***  
 
CITY SKY/WX TMP DP RH WIND PRES REMARKS
 
BRANDON CLOUDY 43 36 75 W17G24 29.56S  
DAUPHIN CLOUDY 45 37 76 W20G25 29.50R  
ISLAND LAKE CLOUDY 63 55 77 S7 29.32S  
PILOT MOUND N/A 45 37 76 W12G22 N/A  
THE PAS DRIZZLE 39 37 93 NW17 29.41F FOG  
THOMPSON LGT RAIN 39 39 100 N9 29.28F  
WINNIPEG CLOUDY 48 41 76 W13G21 29.53S  
LYNN LAKE CLOUDY 34 34 100 N10G17 29.44R  
CHURCHILL CLOUDY 36 36 100 W5 29.43S  
GILLAM CLOUDY 50 43 76 E5 29.31F  

 
***SASKATCHEWAN***  
 
CITY SKY/WX TMP DP RH WIND PRES REMARKS
 
ESTEVAN PTCLDY 39 30 70 W15 29.72R  
KINDERSLEY PTCLDY 32 27 80 SE8 29.67F WCI 25  
LLOYDMINSTER CLEAR 30 27 86 W3 29.63F  
PRINCE ALBERT MOCLDY 37 36 93 W6 29.63R  
REGINA CLEAR 34 32 93 W14 29.69R WCI 24  
YORKTON LGT RAIN 39 37 93 NW14G21 29.57R  
N. BATTLEFORD N/A N/A N/A N/A MISG N/A  
LA RONGE LGT RAIN 39 37 93 NW9 29.58S  
SASKATOON CLEAR 30 28 93 SW8 29.69R WCI 23  
SWIFT CURRENT CLEAR 37 27 65 SW14 29.72S  

 
NOTE: THESE ARE AUTOMATED STATIONS WITH LIMITED QUALITY CONTROL  
"FAIR" INDICATES FEW OR NO CLOUDS BELOW 12,000 FEET WITH NO  
SIGNIFICANT WEATHER AND/OR S TO VISIBILITY
.  
SKY/WX - SKY CONDITION AND SIGNIFICANT WEATHER.  
TMP - AIR TEMPERATURE. DP - DEWPOINT TEMPERATURE.  
RH - RELATIVE HUMIDITY. PRES - PRESSURE.  
HX - HEAT INDEX. WCI - WIND CHILL INDEX.  
$  
 
 
CLICK HERE TO GO TO PREVIOUS BULLETINS.

The Nexlab ND Page
The Nexlab MN Page Main Text Page